Showing default

ORBASTRO-TR5, 63236

Orbit data source: Space-Track

ORBASTRO-TR5, 63236 is a UK payload satellite in SSO that was launched on Sat, 15 Mar 2025 UTC via an FALCON 9 launch vehicle from the Air Force Western Test Range (AFWTR). Payload-class satellites include a variety of spacecraft equipped with specific instruments for various scientific and technological missions. These include communications satellites like Starlink; space stations such as the ISS; scientific satellites like the Hubble; Earth observation satellites from companies like Planet Labs, Umbra, and HawkEye 360; GPS; miniature CubeSats for education and research; and military/defense satellites.

Loading next visibility...
Identifier
63236, 2025-052AC
Orbit
SSO
Country
Flag of UKUK
Related business
Manufacturer
OrbAstro
Mission
Operational Commercial Technology
Bus & Motor
CUBESAT 6U, Unknown motor
Mass
~10 kg wet, ~10 kg dry
Launch date (UTC)
2025-03-15 (1 year ago)
Launch vehicle
FALCON 9
Launch site
Air Force Western Test Range (AFWTR)
Object type
Payload
Rocket body
Debris
Shape & HBR
Box, 0.2 m
Radar Cross Section
0.035 m², Medium (>0.1 m² and < 1m²)

Expand to show TLE details & history
Last TLE update: 11 hours ago

TLE from 11 hours ago
0 ORBASTRO-TR5
1 63236U 25052AC  26254.66425214  .00003421  00000-0  14977-3 0  9994
2 63236  97.3703 144.7375 0003176 184.4372 175.6837 15.22699999 82972
Epoch: 2026-09-11T15:56Z
TLE epoch observation values (Epoch: 2026-09-11T15:56:31.384Z)
Latitude
-0.00006°
Longitude
-85.07762°
Altitude
502.974 km
Speed
7.612 km/s
True Right ascension
09h 38m 57s
True Declination
0° 00' 00"
Sunlit
Object was in daylight at epoch
Visualization orbit readout
Latitude
Unknown
Longitude
Unknown
Altitude
Unknown
Speed
Unknown
Apparent Right ascension
Unknown
Apparent Declination
Unknown
Sunlit
N/A
Visualization observer readout
Local Sidereal Time
18:50:48
Azimuth
Unknown
Elevation
Unknown
Doppler factor
Unknown
Orbital elements
Apogee altitude
496.844 km
Perigee altitude
492.478 km
Semi-major axis
6,872.798 km
Eccentricity
0.00032
Inclination
97.3703°
RAAN
144.7375°
Arg. of periapsis
184.4372°
True anomaly
175.68644°
Mean anomaly
175.6837°
Eccentric anomaly
175.68507°
Mean motion
3.80928 °/min
Orbital period
94.51 mins
BSTAR
0.00014977
Loading maneuver chart data...
Computing Atmospheric mass density...
Loading historical data...
Loading historical data...
Loading historical data...
Loading historical data...
Loading historical data...
Loading historical data...
Loading historical data...

Documentation

Showing up to 5 results
|